Regional Weather Roundup
Issued by NWS

Home | Current Version | Previous Version | Graphics & Text | Print | Product List | Glossary On
Versions: 1 2 3 4 5 6 7 8 9 10 11 12 13 14 15 16 17 18 19 20 21 22 23 24 25 26 27 28 29 30 31 32 33 34 35 36 37 38 39 40 41 42 43 44 45 46 47 48 49 50
395
ASUS43 KDMX 261008
RWRIA

WEATHER ROUNDUP FOR IOWA
NATIONAL WEATHER SERVICE DES MOINES IA
500 AM CDT THU MAY 26 2016

NOTE: "FAIR" INDICATES FEW OR NO CLOUDS BELOW 12,000 FEET WITH NO
SIGNIFICANT WEATHER AND/OR OBSTRUCTIONS TO VISIBILITY.

* - THESE STATIONS ARE NOT NWS STATIONS...THUS NOT UNDER NWS
QUALITY CONTROL.  THEY ALSO DO NOT REPORT WEATHER SUCH
AS PRECIPITATION OR FOG.

IAZ001>003-012>014-020>022-031>034-043>046-261100-
   NORTHWEST IOWA

CITY           SKY/WX    TMP DP  RH WIND       PRES   REMARKS
CARROLL *      CLEAR     59  55  88 S7        29.83F
CHEROKEE *     MOCLDY    57  57 100 S3        29.85R
DENISON *      CLEAR     57  55  94 CALM      29.83S
LE MARS *      CLEAR     59  57  94 S6        29.86R
ORANGE CITY *  CLEAR     59  57  94 CALM      29.86R
SHELDON *      CLEAR     59  57  94 SW8       29.84R
SIOUX CITY     FOG       56  54  93 CALM      29.85R VSB 1
SPENCER        CLOUDY    59  55  87 S5        29.84R
STORM LAKE *   CLEAR     59  57  94 S7        29.85R
$$

IAZ055>058-069>071-079>083-090>094-261100-
   SOUTHWEST IOWA

CITY           SKY/WX    TMP DP  RH WIND       PRES   REMARKS
ATLANTIC *     CLEAR     63  61  94 CALM      29.86S
AUDUBON *      CLEAR     57  55  94 CALM      29.86S
CLARINDA *       N/A     63  59  88 MISG      29.89R
COUNCIL BLFS * CLEAR     61  57  88 E7        29.85F
CRESTON *      CLEAR     63  57  82 NW7       29.90R
HARLAN  *      CLEAR     61  57  88 CALM      29.88S
LAMONI         CLOUDY    65  62  90 E5        29.90R
RED OAK *      CLEAR     59  59 100 CALM      29.87F FOG
SHENANDOAH *   CLEAR     63  63 100 E8        29.88F
$$

IAZ047>049-059>061-072>074-084-261100-
   CENTRAL IOWA

CITY           SKY/WX    TMP DP  RH WIND       PRES   REMARKS
AMES           CLOUDY    60  57  89 SE5       29.83F
ANKENY *       CLOUDY    61  61 100 N8        29.81F
BOONE *        CLOUDY    59  57  94 NW6G14    29.88R
CHARITON *     PTCLDY    66  61  82 NE7       29.89S
DES MOINES     CLOUDY    64  57  78 CALM      29.84R
GRINNELL*      LGT RAIN  61  57  88 NW17G33   29.89F
KNOXVILLE *    PTCLDY    64  57  77 N5G14     29.85F
NEWTON *       CLOUDY    61  61 100 N18G28    29.84F
PELLA *        CLOUDY    63  57  82 NE6G18    29.87F
PERRY *          N/A     61  59  94 N3        29.86R
$$

IAZ004>006-015-016-023>025-035-036-261100-
   NORTH CENTRAL IOWA

CITY           SKY/WX    TMP DP  RH WIND       PRES   REMARKS
ALGONA *       LGT RAIN  59  57  94 E6        29.82F
CLARION *      CLOUDY    59  59 100 E8        29.85F
ESTHERVILLE    CLOUDY    60  55  83 SW3       29.84R
FORT DODGE *   MOCLDY    57  54  88 E9        29.83F
MASON CITY     RAIN      59  57  93 SW13G23   29.93R FOG
FOREST CITY *  RAIN      57  55  94 SE10      29.89F
WEBSTER CITY * DRIZZLE   59  59 100 NE7G14    29.82F
IOWA FALLS *   RAIN      61  57  88 NE17      29.83F
$$

IAZ007>011-017>019-026>030-037>042-050>054-066-261100-
   NORTHEAST IOWA

CITY           SKY/WX    TMP DP  RH WIND       PRES   REMARKS
CEDAR RAPIDS   TSTM      65  65 100 NW13      29.89R FOG
CHARLES CITY * HVY RAIN  59  59 100 SW22G28   29.95R
CLINTON *      CLOUDY    69  64  84 SW8       29.88R
DECORAH *      LGT RAIN  63  61  94 NW13G28   29.82R
DUBUQUE        CLOUDY    67  62  84 S12       29.86R
MONTICELLO *   LGT RAIN  70  64  83 SW14G22   29.85R
OELWEIN *      FOG       61  59  94 W37G62    29.97R VSB 3/4
WATERLOO       RAIN      58  57  97 W20G36    29.98R FOG
$$

IAZ064-065-067-068-078-261100-
   EAST CENTRAL IOWA

CITY           SKY/WX    TMP DP  RH WIND       PRES   REMARKS
DAVENPORT      CLOUDY    72  63  73 SW12      29.87R
IOWA CITY      CLOUDY    70  64  81 SW6       29.87S
MT. PLEASANT * CLOUDY    70  66  88 S7        29.86F
MUSCATINE *    PTCLDY    72  64  78 S5        29.86F
QUAD CITIES    CLOUDY    73  63  70 SW12      29.87R
$$

IAZ062-063-075>077-085>089-095>099-261100-
   SOUTHEAST IOWA

CITY           SKY/WX    TMP DP  RH WIND       PRES   REMARKS
BURLINGTON     TSTM      67  66  97 SW12      29.90R
FAIRFIELD *      N/A    N/A N/A N/A MISG        N/A
FORT MADISON * RAIN      64  63  94 S5        29.92R
KEOKUK *       RAIN      64  63  94 S6G13     29.89R
OSKALOOSA *    HVY RAIN  66  61  82 NW20G26   29.93R
OTTUMWA        MOCLDY    64  62  93 W13       29.92R
WASHINGTON *   CLEAR     68  68 100 S10       29.87F
$$

ABBREVIATIONS USED IN REMARKS
   TC - TEMPERATURES IN CELSIUS
  WCI - WIND CHILL INDEX
   HX - HEAT INDEX
  VSB - VISIBILITY
$$





USA.gov is the U.S. government's official web portal to all federal, state and local government web resources and services.